Weather History for Kankakee, IL

Change the Weather History Date:

Friday, April 20, 2012

  Actual Average Record
Temperature  
Mean Temperature 52 °F -  
Max Temperature 62 °F 64 °F 85 °F (1985)
Min Temperature 41 °F 42 °F 27 °F (1983)
Degree Days  
Heating Degree Days 13    
Growing Degree Days 2 (Base 50)    
Moisture  
Dew Point 42 °F    
Average Humidity 74    
Maximum Humidity 92    
Minimum Humidity 48    
Precipitation  
Precipitation 0.19 in - - ()
Sea Level Pressure  
Sea Level Pressure 29.82 in    
Wind  
Wind Speed 13 mph (NW)    
Max Wind Speed 20 mph    
Max Gust Speed 26 mph    
Visibility 9 miles    
Events Rain , Thunderstorm    
Averages and records for this station are not official NWS values.
T = Trace of Precipitation, MM = Missing Value Source: NWS Daily Summary

Daily Weather History Graph

Daily Weather History Graph

Search for Another Location

Airport:

Trip Planner

Search our weather history database for the weather conditions in past years. The results will help you decide how hot, cold, wet, or windy it might be!

Date:

Astronomy

Apr. 20, 2012 Rise Set
Actual Time 6:03 AM CDT 7:37 PM CDT
Civil Twilight 5:34 AM CDT 8:06 PM CDT
Nautical Twilight 5:00 AM CDT 8:41 PM CDT
Astronomical Twilight 4:22 AM CDT 9:18 PM CDT
Moon 5:27 AM CDT (4/20) 7:22 PM CDT (4/20)
Length of Visible Light 14h 31m
Length of Day
13h 33m
Waning Crescent, 0% of the Moon is Illuminated
Apr 20
Waning Crescent
Apr 21
New
Apr 29
First Quarter
May 5
Full
May 12
Last Quarter

Hourly Weather History & Observations

Time (CDT) Temp. Windchill Dew Point Humidity Pressure Visibility Wind Dir Wind Speed Gust Speed Precip Events Conditions
12:15 AM 62.4 °F - 42.6 °F 48% 29.73 in 10.0 mi South 15.0 mph 23.0 mph N/A   Clear
12:35 AM 62.4 °F - 42.8 °F 49% 29.72 in 10.0 mi South 15.0 mph 21.9 mph N/A   Clear
12:55 AM 62.2 °F - 43.2 °F 50% 29.71 in 10.0 mi South 16.1 mph 21.9 mph N/A   Clear
1:15 AM 62.2 °F - 43.2 °F 50% 29.70 in 10.0 mi South 18.4 mph 23.0 mph N/A   Clear
1:35 AM 61.7 °F - 43.2 °F 51% 29.70 in 10.0 mi South 16.1 mph 19.6 mph N/A   Clear
1:55 AM 61.2 °F - 43.7 °F 53% 29.70 in 10.0 mi South 15.0 mph 20.7 mph N/A   Clear
2:15 AM 60.8 °F - 43.3 °F 53% 29.69 in 10.0 mi South 15.0 mph - N/A   Clear
2:35 AM 60.8 °F - 43.7 °F 53% 29.69 in 10.0 mi South 15.0 mph 20.7 mph N/A   Clear
2:55 AM 60.6 °F - 43.7 °F 54% 29.68 in 10.0 mi South 16.1 mph 20.7 mph N/A   Clear
3:15 AM 60.8 °F - 43.7 °F 53% 29.67 in 10.0 mi South 13.8 mph - N/A   Scattered Clouds
3:35 AM 60.8 °F - 44.1 °F 54% 29.67 in 10.0 mi South 15.0 mph 20.7 mph N/A   Scattered Clouds
3:55 AM 60.6 °F - 44.4 °F 55% 29.67 in 10.0 mi South 17.3 mph 23.0 mph N/A   Mostly Cloudy
4:15 AM 60.3 °F - 44.6 °F 56% 29.67 in 10.0 mi South 12.7 mph 21.9 mph N/A   Mostly Cloudy
4:35 AM 60.3 °F - 44.8 °F 57% 29.67 in 10.0 mi South 11.5 mph 17.3 mph N/A   Mostly Cloudy
4:55 AM 60.8 °F - 44.6 °F 55% 29.66 in 10.0 mi SSW 12.7 mph 18.4 mph N/A   Mostly Cloudy
5:15 AM 61.0 °F - 45.0 °F 56% 29.66 in 10.0 mi South 13.8 mph 18.4 mph N/A   Overcast
5:35 AM 60.8 °F - 45.1 °F 56% 29.66 in 10.0 mi SSW 11.5 mph - N/A Thunderstorm Overcast
5:55 AM 60.6 °F - 45.5 °F 57% 29.67 in 10.0 mi SW 10.4 mph - N/A   Overcast
6:15 AM 57.4 °F - 48.9 °F 73% 29.69 in 7.0 mi SW 11.5 mph 18.4 mph 0.01 in Rain Rain
6:35 AM 55.4 °F - 51.1 °F 85% 29.69 in 7.0 mi SSW 13.8 mph - 0.09 in Rain Light Rain
6:55 AM 54.9 °F - 50.9 °F 86% 29.69 in 5.0 mi South 11.5 mph - 0.13 in Rain Light Rain
7:15 AM 55.6 °F - 52.0 °F 88% 29.69 in 10.0 mi SSW 12.7 mph - N/A   Light Drizzle
7:35 AM 56.3 °F - 52.3 °F 87% 29.69 in 10.0 mi SW 8.1 mph - N/A   Overcast
7:55 AM 56.7 °F - 52.7 °F 87% 29.69 in 10.0 mi SW 9.2 mph - N/A   Overcast
8:15 AM 57.0 °F - 52.7 °F 85% 29.69 in 10.0 mi WSW 12.7 mph 16.1 mph 0.01 in   Overcast
8:35 AM 56.3 °F - 52.3 °F 87% 29.70 in 10.0 mi West 10.4 mph - 0.01 in   Overcast
8:55 AM 53.2 °F - 50.0 °F 89% 29.72 in 4.0 mi WNW 9.2 mph 17.3 mph 0.01 in   Overcast
9:15 AM 52.0 °F - 49.6 °F 92% 29.73 in 2.0 mi WNW 12.7 mph 16.1 mph N/A Rain Light Rain
9:35 AM 51.1 °F - 48.6 °F 91% 29.74 in 3.0 mi WNW 10.4 mph 17.3 mph 0.01 in Rain Light Rain
9:55 AM 50.2 °F - 47.7 °F 91% 29.76 in 4.0 mi NW 9.2 mph 17.3 mph 0.01 in   Drizzle
10:15 AM 48.4 °F - 45.9 °F 91% 29.77 in 4.0 mi NNW 11.5 mph 17.3 mph 0.03 in Rain Light Rain
10:35 AM 47.8 °F - 45.5 °F 92% 29.79 in 5.0 mi NW 9.2 mph 17.3 mph 0.04 in Rain Rain
10:55 AM 47.3 °F - 44.8 °F 91% 29.78 in 5.0 mi NNW 10.4 mph - 0.04 in   Drizzle
11:15 AM 47.3 °F - 45.0 °F 92% 29.79 in 3.0 mi North 9.2 mph - N/A   Drizzle
11:35 AM 47.3 °F - 44.6 °F 90% 29.82 in 5.0 mi NNW 8.1 mph - N/A   Overcast
11:55 AM 46.8 °F - 44.1 °F 90% 29.83 in 5.0 mi North 8.1 mph - N/A   Overcast
12:15 PM 46.4 °F 42.4 °F 43.7 °F 90% 29.85 in 7.0 mi NNW 8.1 mph 17.3 mph N/A   Overcast
12:35 PM 46.2 °F 43.3 °F 43.5 °F 90% 29.86 in 5.0 mi North 5.8 mph - N/A   Light Drizzle
12:55 PM 45.9 °F 41.7 °F 43.2 °F 90% 29.87 in 5.0 mi North 8.1 mph 16.1 mph N/A   Overcast
1:15 PM 45.5 °F 41.8 °F 42.8 °F 90% 29.87 in 5.0 mi North 6.9 mph - N/A   Overcast
1:35 PM 45.5 °F 41.8 °F 42.1 °F 88% 29.88 in 7.0 mi NNW 6.9 mph - N/A   Overcast
1:55 PM 45.5 °F 41.3 °F 42.3 °F 88% 29.88 in 7.0 mi North 8.1 mph - N/A   Overcast
2:15 PM 45.9 °F 40.8 °F 41.0 °F 83% 29.89 in 10.0 mi NNW 10.4 mph - N/A   Overcast
2:35 PM 45.5 °F 40.8 °F 41.0 °F 84% 29.90 in 10.0 mi NNW 9.2 mph - N/A   Overcast
2:55 PM 45.0 °F 40.6 °F 40.6 °F 85% 29.90 in 10.0 mi North 8.1 mph - N/A   Overcast
3:15 PM 45.5 °F 41.3 °F 40.1 °F 81% 29.90 in 10.0 mi North 8.1 mph - N/A   Overcast
3:35 PM 45.7 °F 40.2 °F 39.7 °F 80% 29.91 in 10.0 mi North 11.5 mph - N/A   Overcast
3:55 PM 45.5 °F 40.8 °F 39.6 °F 80% 29.91 in 10.0 mi North 9.2 mph - N/A   Overcast
4:15 PM 45.5 °F 41.3 °F 39.4 °F 79% 29.91 in 10.0 mi NNW 8.1 mph - N/A   Overcast
4:35 PM 45.5 °F 40.3 °F 39.2 °F 79% 29.91 in 10.0 mi North 10.4 mph 16.1 mph N/A   Overcast
4:55 PM 45.5 °F 39.6 °F 38.7 °F 77% 29.91 in 10.0 mi North 12.7 mph 20.7 mph N/A   Overcast
5:15 PM 45.5 °F 40.3 °F 38.8 °F 78% 29.91 in 10.0 mi NNW 10.4 mph 17.3 mph N/A   Overcast
5:35 PM 45.5 °F 40.8 °F 38.5 °F 76% 29.92 in 10.0 mi North 9.2 mph 18.4 mph N/A   Overcast
5:55 PM 45.0 °F 38.2 °F 37.9 °F 76% 29.93 in 10.0 mi North 15.0 mph 19.6 mph N/A   Overcast
6:15 PM 44.2 °F 38.4 °F 37.8 °F 78% 29.94 in 10.0 mi North 11.5 mph 21.9 mph N/A   Overcast
6:35 PM 43.9 °F 38.3 °F 37.6 °F 78% 29.94 in 10.0 mi North 10.4 mph 21.9 mph N/A   Overcast
6:55 PM 43.9 °F 37.5 °F 37.4 °F 78% 29.94 in 10.0 mi NNW 12.7 mph 24.2 mph N/A   Overcast
7:15 PM 43.9 °F 37.9 °F 37.2 °F 77% 29.95 in 10.0 mi North 11.5 mph 20.7 mph N/A   Overcast
7:35 PM 44.1 °F 38.1 °F 36.9 °F 76% 29.96 in 10.0 mi North 11.5 mph 19.6 mph N/A   Overcast
7:55 PM 44.1 °F 37.1 °F 35.6 °F 72% 29.97 in 10.0 mi North 15.0 mph 25.3 mph N/A   Overcast
8:15 PM 44.1 °F 39.5 °F 36.0 °F 73% 29.98 in 10.0 mi North 8.1 mph 17.3 mph N/A   Overcast
8:35 PM 43.9 °F 35.7 °F 34.5 °F 70% 29.99 in 10.0 mi NNW 19.6 mph 26.5 mph N/A   Overcast
8:55 PM 43.9 °F 36.5 °F 34.7 °F 70% 29.99 in 10.0 mi North 16.1 mph 24.2 mph N/A   Overcast
9:15 PM 43.7 °F 36.6 °F 34.0 °F 69% 29.99 in 10.0 mi North 15.0 mph 24.2 mph N/A   Overcast
9:35 PM 42.8 °F 35.8 °F 33.8 °F 70% 29.99 in 10.0 mi North 13.8 mph 23.0 mph N/A   Overcast
9:55 PM 43.0 °F 37.2 °F 34.5 °F 72% 29.98 in 10.0 mi North 10.4 mph 19.6 mph N/A   Overcast
10:15 PM 43.0 °F 36.8 °F 34.5 °F 72% 29.98 in 10.0 mi North 11.5 mph 17.3 mph N/A   Scattered Clouds
10:35 PM 43.0 °F 36.4 °F 33.6 °F 70% 29.97 in 10.0 mi North 12.7 mph 24.2 mph N/A   Scattered Clouds
10:55 PM 42.8 °F 36.2 °F 33.8 °F 70% 29.97 in 10.0 mi North 12.7 mph 18.4 mph N/A   Clear
11:15 PM 42.3 °F 36.8 °F 34.2 °F 73% 29.97 in 10.0 mi North 9.2 mph - N/A   Mostly Cloudy
11:35 PM 42.1 °F 36.1 °F 35.1 °F 76% 29.98 in 10.0 mi North 10.4 mph - N/A   Mostly Cloudy
11:55 PM 41.9 °F 36.9 °F 35.6 °F 78% 29.98 in 10.0 mi North 8.1 mph 17.3 mph N/A   Scattered Clouds